Location: Bletchingley
(51.2333°N, 0.1000°W)
Time: 14:43:38
(UTC+00:00)

Cosmos 2266 Rocket - Pass Details

Date: 23 January 2021
Orbit: 934 x 1008 km, 82.9° (Epoch: 05 March)

Event Time Altitude Azimuth Distance (km) Brightness Sun altitude
Rises 05:16:54 0° 356° (N) 3,628 6.9 -23.6°
Reaches altitude 10° 05:20:10 10° 13° (NNE) 2,669 6.4 -23.1°
Maximum altitude 05:24:31 20° 60° (ENE) 2,027 6.3 -22.4°
Drops below altitude 10° 05:28:50 10° 106° (ESE) 2,645 7.4 -21.7°
Sets 05:32:02 0° 123° (ESE) 3,585 8.0 -21.2°
